Temp
11 12 12 12 13 13 13 13 13 13 13 14 14 14 14 14 14 14 12 12 12 12 12 12 12 12 12 11 11 11 10 10 10 10 9 9 9 9 9 9 9 9 9 9 8 8 8 8 8
11 11 12 12 12 12 12 12 13 13 13 14 14 14 14 13 13 13 13 12 12 12 12 12 11 11 11 11 11 10 10 10 9 9 9 9 9 9 9 9 8 9 9 9 8 8 8 8 8
11 11 12 12 12 12 12 13 13 13 13 13 13 13 13 13 13 13 12 12 12 12 11 11 11 11 10 10 10 10 10 9 9 9 9 9 9 9 9 9 8 8 9 8 8 8 8 8 8
10 11 11 12 12 12 12 13 13 13 13 13 13 13 13 13 13 12 12 12 12 12 11 10 10 10 10 10 9 10 10 9 9 9 9 9 9 9 9 8 8 8 8 8 8 8 8 8 8
10 11 11 12 12 11 12 12 13 13 13 13 12 13 13 13 12 12 12 11 11 11 11 10 10 10 10 10 10 9 9 9 9 9 9 9 9 9 9 8 8 8 8 8 8 8 8 8 8
9 10 11 12 12 11 11 12 12 12 13 12 12 12 12 12 12 12 11 11 11 11 11 10 10 10 9 9 10 9 9 9 9 9 9 9 9 9 8 8 8 8 8 8 8 8 8 7 7
9 9 10 11 12 12 11 11 11 11 12 12 12 12 12 12 12 12 11 11 10 10 10 10 10 10 10 9 9 9 9 9 9 9 8 8 9 8 8 8 8 8 8 8 8 8 8 8 7
9 9 10 11 12 12 11 11 12 12 12 12 12 12 12 12 12 12 12 11 10 10 10 10 9 10 10 10 9 9 9 9 9 8 8 8 8 8 8 8 8 8 8 8 8 8 8 8 7
8 8 9 11 11 12 12 12 12 12 12 11 12 12 12 12 12 11 11 11 10 10 9 9 9 10 10 10 9 9 9 9 9 9 8 8 8 8 8 8 8 8 8 8 8 8 7 8 7
9 9 10 10 10 11 12 12 12 12 12 12 12 12 12 12 12 12 12 11 11 9 9 9 9 9 9 9 9 9 9 9 9 9 8 8 8 8 8 8 8 8 8 7 7 8 8 7 8
9 10 10 10 10 10 10 11 11 12 12 12 12 11 12 12 11 12 11 10 10 9 8 8 8 9 9 9 9 9 9 8 8 8 8 8 8 8 8 8 8 7 7 7 7 7 7 7 7
8 10 10 10 10 10 10 11 11 11 12 11 12 11 12 11 11 11 10 10 10 9 9 8 8 8 8 8 8 8 9 9 9 8 8 8 8 8 8 8 7 7 7 7 7 6 6 6 6
8 10 9 9 9 10 10 10 10 12 11 11 12 12 13 12 12 11 9 10 9 9 9 8 8 8 8 8 8 8 8 8 8 9 8 8 8 7 8 7 8 7 7 7 6 6 6 6 6
8 9 9 9 9 9 9 10 9 12 11 12 12 13 13 13 12 10 9 9 9 9 9 8 8 8 8 7 7 8 8 8 8 8 8 8 8 8 8 8 8 8 7 7 7 6 6 6 6
8 8 8 9 9 9 9 9 11 11 11 11 12 12 12 12 12 11 10 9 9 9 9 8 8 8 7 7 7 7 7 7 7 7 7 7 7 7 7 7 7 7 7 7 7 7 6 6 6
6 7 7 10 10 9 8 9 11 10 10 11 11 11 11 12 12 11 10 9 9 9 9 9 8 8 7 7 7 7 7 7 7 7 7 6 6 6 7 7 7 7 7 7 7 7 7 6 6
4 5 6 10 10 9 8 9 11 10 10 10 11 11 11 11 11 10 10 9 9 9 9 9 9 8 8 7 7 6 6 6 6 6 6 6 6 7 7 7 7 7 7 7 7 7 7 7 7
3 4 7 9 9 8 8 8 10 9 9 9 10 10 10 10 10 10 10 9 9 9 9 9 8 8 8 8 7 7 7 6 6 6 6 6 6 7 7 7 7 7 6 6 6 6 6 7 7
5 5 6 7 8 7 8 8 9 10 9 10 9 9 10 10 10 10 10 9 9 9 9 8 8 8 8 8 7 7 7 7 7 6 6 6 7 7 6 6 6 6 6 5 5 5 5 5 5
4 4 5 5 6 6 7 8 9 9 10 10 9 9 10 9 9 9 10 9 9 9 9 9 8 8 8 7 7 7 7 7 7 7 7 6 6 6 5 5 5 5 5 5 5 5 5 5 5
5 5 4 4 4 5 6 8 8 10 9 9 9 10 10 10 9 9 9 9 9 9 9 8 8 8 7 7 7 7 6 6 6 6 6 5 5 5 5 5 5 5 5 5 5 4 4 3 3
4 5 3 3 3 4 5 7 8 7 8 10 10 10 10 10 9 9 8 8 9 9 8 8 8 7 7 6 6 6 5 5 5 5 4 4 4 5 5 5 5 5 5 4 3 2 2 1 2
4 3 3 3 3 2 4 3 6 6 6 10 10 10 10 10 9 9 8 8 8 8 7 7 6 6 6 5 5 5 5 5 4 4 4 4 5 5 5 5 5 5 4 4 3 2 1 1 1
3 3 3 2 1 2 4 4 6 6 8 10 9 10 10 10 9 8 8 8 7 6 6 6 5 5 4 4 4 4 4 4 4 4 4 4 5 5 5 5 5 4 3 2 2 1 1 0 -0
2 2 2 2 1 3 5 4 7 8 8 9 9 9 9 9 8 8 8 7 7 6 5 4 4 4 3 3 3 3 3 4 4 4 4 4 4 5 5 5 3 2 2 1 1 0 -0 -1 -2
1 2 4 3 4 5 4 5 7 7 8 8 8 9 9 9 9 9 8 7 6 5 4 4 3 3 3 3 3 3 3 3 3 4 3 4 4 4 4 3 2 1 1 0 -1 -2 -2 -2 -3
1 0 3 3 4 4 5 5 5 6 6 7 8 8 9 9 9 8 7 6 5 4 3 3 3 3 3 3 2 2 2 3 3 3 3 3 3 2 2 2 1 1 -1 -2 -2 -2 -2 -2 -2
2 3 1 3 3 3 6 5 7 7 7 7 7 8 8 8 8 8 7 5 4 3 3 2 2 2 2 2 1 2 2 2 2 2 3 2 1 1 1 1 0 -1 -1 -2 -2 -2 -2 -3 -3
1 1 2 2 3 4 5 6 7 7 7 8 8 8 8 8 8 7 6 5 3 2 2 2 2 2 1 1 1 1 1 2 2 2 2 1 1 1 1 -0 -1 -2 -2 -2 -2 -2 -2 -3 -3
2 2 2 2 3 3 5 5 7 7 7 7 7 7 7 7 7 7 6 4 3 2 1 1 1 1 1 1 1 1 1 1 2 1 1 0 -0 -0 -1 -2 -2 -2 -2 -2 -2 -2 -3 -3 -3
Height
3166 3167 3168 3169 3174 3171 3171 3173 3173 3174 3175 3176 3178 3179 3180 3180 3180 3184 3181 3181 3181 3180 3181 3181 3180 3180 3179 3178 3179 3179 3181 3181 3182 3184 3185 3186 3186 3187 3187 3187 3188 3188 3188 3188 3188 3189 3189 3188 3187
3165 3167 3168 3168 3170 3169 3171 3171 3173 3173 3175 3176 3177 3179 3179 3179 3180 3181 3181 3181 3181 3181 3180 3179 3179 3178 3177 3178 3178 3179 3180 3181 3182 3183 3184 3185 3186 3186 3187 3187 3188 3188 3189 3189 3189 3189 3189 3189 3188
3164 3166 3168 3168 3168 3169 3170 3170 3172 3172 3174 3175 3177 3178 3179 3179 3180 3180 3180 3180 3180 3179 3178 3177 3176 3175 3175 3176 3177 3179 3179 3180 3181 3182 3183 3184 3185 3185 3186 3187 3187 3188 3189 3189 3189 3189 3190 3190 3189
3163 3166 3167 3167 3167 3168 3168 3169 3170 3172 3173 3175 3176 3178 3178 3178 3178 3178 3178 3178 3178 3177 3176 3175 3174 3173 3173 3174 3175 3176 3178 3179 3180 3181 3183 3183 3184 3184 3185 3186 3187 3187 3188 3189 3189 3189 3189 3189 3189
3162 3164 3165 3164 3166 3167 3167 3168 3169 3171 3172 3173 3175 3176 3177 3177 3177 3177 3176 3176 3175 3175 3174 3173 3172 3172 3173 3172 3172 3173 3175 3177 3178 3180 3181 3182 3183 3184 3185 3185 3185 3186 3187 3188 3188 3188 3188 3189 3188
3160 3162 3163 3162 3164 3165 3166 3167 3167 3169 3171 3172 3173 3174 3175 3175 3175 3175 3174 3174 3173 3173 3172 3171 3170 3170 3171 3171 3171 3171 3172 3174 3176 3178 3179 3181 3182 3183 3183 3183 3184 3184 3185 3186 3187 3186 3187 3187 3187
3156 3159 3159 3160 3162 3163 3164 3165 3166 3166 3167 3169 3170 3171 3173 3173 3174 3173 3172 3171 3170 3170 3169 3168 3168 3168 3168 3168 3169 3169 3170 3171 3173 3175 3177 3179 3181 3181 3181 3182 3182 3182 3182 3183 3185 3184 3185 3185 3185
3154 3155 3155 3157 3159 3161 3162 3163 3163 3164 3165 3166 3167 3169 3171 3170 3171 3170 3169 3168 3168 3167 3166 3165 3165 3166 3165 3165 3166 3166 3168 3169 3170 3172 3174 3176 3177 3178 3179 3179 3180 3181 3180 3180 3182 3182 3182 3182 3183
3150 3152 3150 3152 3155 3158 3159 3160 3160 3161 3164 3164 3165 3166 3167 3167 3167 3166 3165 3165 3164 3164 3163 3162 3162 3162 3161 3160 3162 3163 3164 3165 3167 3169 3171 3172 3175 3176 3177 3177 3177 3177 3177 3178 3178 3180 3179 3179 3179
3146 3146 3146 3149 3153 3155 3155 3156 3157 3158 3159 3161 3162 3162 3162 3162 3163 3162 3161 3162 3161 3160 3160 3159 3159 3159 3158 3157 3159 3160 3160 3162 3164 3166 3168 3170 3172 3173 3174 3174 3174 3174 3174 3173 3173 3175 3176 3175 3176
3141 3140 3143 3146 3149 3150 3151 3152 3153 3154 3156 3158 3158 3158 3158 3158 3157 3157 3156 3157 3157 3156 3156 3157 3156 3155 3155 3156 3156 3158 3159 3160 3161 3163 3165 3166 3168 3169 3169 3170 3170 3169 3169 3169 3169 3169 3170 3171 3171
3136 3138 3138 3141 3145 3146 3147 3149 3149 3150 3152 3153 3153 3152 3151 3150 3151 3151 3151 3152 3152 3152 3153 3153 3153 3153 3153 3154 3155 3155 3156 3157 3158 3159 3161 3162 3163 3164 3164 3164 3165 3164 3164 3164 3164 3164 3165 3166 3167
3131 3135 3134 3136 3138 3140 3141 3143 3143 3144 3147 3148 3146 3146 3146 3145 3144 3145 3145 3147 3147 3148 3149 3150 3151 3150 3151 3151 3151 3153 3153 3154 3155 3155 3156 3158 3158 3158 3158 3159 3159 3159 3158 3159 3158 3158 3157 3158 3160
3125 3129 3129 3130 3133 3134 3136 3137 3137 3140 3141 3140 3141 3141 3140 3140 3139 3138 3140 3142 3144 3145 3147 3147 3147 3148 3148 3148 3148 3148 3149 3150 3151 3151 3151 3152 3152 3153 3153 3154 3154 3155 3154 3153 3152 3152 3152 3152 3152
3119 3122 3123 3123 3128 3128 3131 3129 3129 3135 3133 3134 3134 3136 3136 3135 3134 3133 3135 3137 3140 3142 3143 3143 3144 3144 3145 3145 3144 3144 3145 3146 3147 3147 3147 3147 3147 3147 3149 3149 3149 3149 3149 3149 3148 3147 3146 3146 3146
3114 3116 3116 3120 3122 3122 3126 3119 3127 3128 3128 3128 3128 3129 3130 3130 3130 3130 3131 3133 3136 3138 3139 3139 3140 3139 3140 3141 3140 3141 3142 3143 3143 3142 3142 3143 3143 3144 3145 3146 3146 3145 3144 3144 3142 3141 3140 3139 3138
3106 3106 3111 3116 3116 3118 3118 3114 3121 3121 3122 3123 3123 3123 3124 3125 3126 3127 3128 3129 3131 3134 3134 3135 3136 3136 3136 3136 3136 3137 3138 3139 3139 3139 3139 3140 3140 3141 3141 3142 3141 3141 3140 3139 3137 3136 3134 3132 3131
3100 3103 3104 3107 3112 3110 3110 3107 3114 3116 3115 3116 3118 3118 3119 3119 3121 3123 3124 3125 3127 3128 3130 3130 3131 3131 3131 3131 3132 3133 3133 3134 3135 3135 3135 3136 3136 3136 3135 3134 3134 3133 3132 3132 3130 3128 3126 3124 3121
3100 3100 3098 3101 3107 3105 3103 3101 3105 3108 3107 3110 3111 3113 3113 3115 3116 3118 3119 3120 3121 3122 3124 3125 3125 3126 3126 3126 3127 3127 3128 3128 3129 3129 3130 3130 3131 3130 3129 3127 3126 3125 3124 3122 3121 3119 3116 3113 3112
3094 3094 3092 3096 3099 3100 3097 3090 3094 3097 3098 3101 3104 3106 3106 3107 3109 3111 3113 3114 3115 3116 3117 3119 3119 3120 3120 3120 3121 3121 3122 3122 3122 3123 3124 3124 3124 3123 3122 3121 3119 3116 3113 3111 3109 3105 3102 3099 3097
3082 3083 3089 3092 3094 3094 3093 3075 3082 3085 3088 3091 3095 3098 3099 3100 3101 3102 3104 3107 3107 3109 3109 3111 3111 3112 3113 3114 3114 3115 3115 3115 3116 3116 3117 3117 3116 3115 3114 3112 3109 3106 3102 3098 3095 3091 3086 3082 3079
3073 3080 3085 3087 3094 3089 3093 3064 3069 3073 3076 3080 3086 3088 3091 3092 3092 3094 3096 3097 3098 3098 3100 3102 3102 3103 3105 3107 3108 3109 3109 3109 3110 3110 3110 3109 3108 3107 3105 3102 3099 3095 3091 3085 3080 3076 3072 3068 3064
3063 3078 3079 3082 3084 3088 3079 3078 3054 3063 3064 3071 3076 3080 3082 3084 3085 3086 3087 3087 3088 3089 3090 3092 3094 3096 3098 3100 3102 3103 3102 3102 3102 3102 3102 3101 3100 3097 3095 3090 3086 3082 3076 3072 3068 3064 3059 3054 3049
3067 3074 3076 3077 3081 3078 3062 3077 3019 3050 3056 3061 3067 3071 3074 3076 3077 3078 3078 3078 3079 3082 3083 3084 3086 3089 3091 3093 3095 3095 3096 3096 3095 3094 3093 3091 3088 3086 3083 3076 3072 3066 3062 3057 3052 3048 3044 3040 3034
3058 3067 3071 3075 3072 3053 3058 3066 3005 3041 3044 3051 3057 3062 3065 3068 3068 3068 3069 3069 3071 3074 3076 3078 3080 3082 3085 3086 3088 3088 3089 3088 3086 3084 3082 3079 3076 3074 3070 3064 3059 3054 3048 3042 3036 3030 3026 3022 3019
3041 3051 3052 3051 3050 3046 3056 3042 3015 3031 3036 3042 3050 3055 3056 3058 3061 3061 3061 3061 3063 3067 3070 3071 3074 3076 3078 3079 3079 3080 3079 3078 3076 3074 3072 3069 3065 3060 3055 3050 3045 3039 3032 3026 3020 3013 3009 3006 3002
3029 3038 3030 3050 3046 3044 3040 3023 3020 3022 3028 3035 3041 3045 3047 3050 3051 3053 3053 3053 3056 3060 3063 3065 3067 3069 3070 3070 3071 3071 3070 3069 3067 3065 3062 3057 3051 3045 3040 3033 3025 3019 3013 3009 3004 2999 2995 2990 2986
3022 3027 3041 3040 3037 3035 3023 3017 3002 3011 3018 3025 3029 3034 3038 3041 3042 3043 3044 3045 3048 3052 3055 3057 3059 3061 3062 3063 3063 3062 3060 3058 3056 3053 3049 3044 3038 3032 3026 3020 3014 3008 3001 2995 2987 2981 2977 2971 2967
3010 3012 3021 3022 3022 3019 3014 3002 3001 3002 3012 3015 3020 3024 3028 3031 3033 3035 3036 3039 3042 3045 3048 3050 3051 3052 3054 3054 3053 3053 3051 3049 3046 3043 3038 3032 3027 3021 3015 3007 3000 2993 2987 2980 2973 2967 2959 2952 2949
2994 2999 3007 3006 3010 3007 3007 2986 2994 2998 3002 3008 3012 3017 3021 3023 3024 3026 3029 3032 3034 3039 3042 3044 3044 3045 3046 3046 3046 3045 3043 3040 3037 3032 3026 3020 3014 3007 2999 2992 2986 2979 2972 2965 2955 2947 2942 2937 2933
Wind_Speed
9 8 7 5 4 4 8 5 12 10 7 7 7 5 5 5 1 3 12 2 3 8 9 8 5 6 7 9 9 8 8 8 6 4 4 3 2 2 2 3 4 6 8 8 8 9 10 10 10
8 8 7 5 4 8 7 9 9 7 9 7 6 5 5 7 7 9 2 3 4 6 7 6 6 7 9 10 11 10 10 10 8 7 7 5 4 3 3 2 2 4 7 8 9 9 9 9 9
9 8 6 4 6 7 5 8 10 9 11 8 4 4 5 5 3 2 2 1 3 7 9 9 5 8 10 11 12 11 12 11 11 10 9 7 7 6 6 5 4 4 6 7 9 9 9 9 9
9 9 7 7 9 5 2 8 12 12 10 7 4 4 3 2 4 7 5 4 8 12 12 8 6 5 6 6 9 11 13 13 13 12 11 10 9 8 7 7 6 5 6 7 8 9 8 7 8
10 10 11 8 9 5 3 6 9 14 11 7 6 5 3 3 7 9 10 10 11 13 15 10 8 5 8 6 7 12 14 14 14 13 12 12 11 9 9 9 8 7 7 7 8 10 9 8 7
12 11 11 14 11 9 6 8 11 14 13 10 7 5 3 4 9 10 12 14 15 10 15 12 9 7 6 8 8 13 15 15 15 14 14 14 12 10 10 11 10 10 9 8 8 9 11 9 7
14 13 16 14 12 14 10 10 12 12 11 10 8 6 6 9 11 14 15 18 15 16 13 11 8 9 6 10 10 13 15 16 16 15 15 14 13 13 12 13 12 12 11 10 9 10 11 11 10
18 17 20 19 17 16 16 14 16 15 12 12 11 7 10 14 15 18 19 20 17 15 13 13 10 10 8 9 10 13 16 17 16 16 15 15 16 15 14 14 14 14 15 13 12 11 12 13 13
20 21 24 24 19 18 20 22 20 19 16 16 14 14 16 17 19 21 21 21 19 15 13 12 13 11 7 8 10 13 17 18 17 17 17 16 16 16 16 15 16 16 17 16 16 14 15 14 15
25 28 28 25 18 16 21 25 25 23 21 19 18 19 22 23 22 23 25 22 18 15 11 10 11 12 7 7 11 13 16 17 18 17 17 15 15 16 16 17 17 18 18 19 20 18 18 19 17
28 31 29 26 15 20 23 22 24 24 26 21 22 21 24 24 24 25 26 17 13 15 13 9 10 9 8 6 9 13 13 16 18 18 17 17 17 17 18 18 19 20 21 22 23 24 23 23 22
30 30 31 28 25 23 21 23 24 22 23 18 20 24 24 25 25 24 23 14 14 17 15 12 10 11 8 8 8 9 14 15 16 18 19 19 19 20 21 22 23 23 24 24 25 27 27 27 27
32 31 32 30 27 27 28 26 25 26 20 20 24 22 23 24 24 23 19 13 15 17 14 12 12 13 12 12 11 11 11 13 16 17 17 20 22 24 25 25 26 26 27 27 28 29 30 32 31
32 32 34 34 31 29 28 27 27 23 21 24 22 20 19 19 22 20 17 11 12 12 10 9 10 13 13 13 13 14 13 12 12 14 18 22 24 24 24 24 25 26 27 29 30 31 33 34 35
33 35 35 36 34 32 31 34 33 22 26 24 24 16 16 18 20 19 13 11 13 12 9 5 6 8 12 15 17 16 14 12 13 14 17 18 21 22 21 21 22 23 25 27 29 31 33 34 35
30 32 35 36 34 33 30 39 31 26 25 24 21 18 18 18 17 16 10 12 12 9 9 8 6 4 10 17 19 18 16 16 15 16 17 19 20 18 18 19 20 21 22 24 27 29 30 32 35
29 20 25 35 34 33 33 34 31 28 26 24 22 21 19 19 18 13 11 12 11 11 11 11 11 10 9 13 18 18 18 18 18 17 16 14 12 11 12 14 16 20 23 25 28 31 34 36 38
27 24 35 37 25 28 31 40 35 32 29 25 24 21 20 21 20 16 17 14 14 14 15 15 15 15 15 15 15 17 16 17 19 19 19 18 16 18 19 21 23 26 29 31 33 36 39 41 43
33 27 31 36 33 35 38 38 35 37 34 30 27 22 23 24 25 22 21 21 19 19 20 20 17 18 21 21 20 20 18 18 18 21 21 22 23 24 26 28 30 32 34 37 40 43 46 48 50
36 38 41 37 36 33 37 44 43 43 42 38 31 29 29 30 29 27 26 27 26 26 25 25 23 22 24 25 26 25 23 23 23 24 27 28 28 29 29 31 34 38 42 44 46 50 53 54 53
48 46 41 32 17 25 33 54 48 47 46 42 36 31 32 31 33 32 30 32 34 31 29 28 26 25 26 28 29 28 29 27 27 27 28 28 29 32 34 37 41 45 48 52 53 53 52 53 53
52 47 42 30 24 24 17 32 37 29 31 39 34 32 30 28 30 37 34 34 39 39 34 32 29 28 27 28 30 31 30 29 29 28 28 29 34 38 42 44 47 51 52 53 52 51 52 52 53
50 37 39 35 30 26 41 23 32 28 34 41 40 34 30 27 28 31 31 33 37 40 36 32 29 28 28 30 32 32 31 30 30 31 34 39 41 44 46 50 53 55 56 55 53 52 52 52 53
31 22 19 21 21 15 44 26 59 39 44 47 38 27 25 28 26 28 31 34 36 37 33 32 30 29 29 30 30 31 32 33 35 37 38 41 45 46 51 55 58 59 58 56 55 54 53 53 55
40 26 9 8 10 13 13 23 61 28 20 23 27 26 27 22 21 25 29 30 31 36 35 32 31 31 30 30 32 33 34 34 35 38 42 46 49 52 55 58 57 56 55 55 55 55 54 53 54
43 40 18 17 13 18 16 22 43 26 29 36 26 24 26 26 26 27 29 31 33 34 34 32 32 31 31 32 34 32 32 34 37 42 45 49 53 58 60 57 56 55 55 54 51 51 48 47 49
40 45 61 24 18 8 24 42 46 39 33 29 28 30 33 31 27 26 29 31 33 35 33 33 32 31 32 32 30 30 34 37 41 44 49 54 56 56 56 57 58 56 54 51 50 51 51 51 51
39 46 28 34 14 20 22 33 40 28 34 38 39 34 29 31 26 23 29 32 34 35 34 32 30 30 31 30 30 33 35 40 44 48 51 52 53 54 55 56 56 55 52 51 52 53 54 53 51
45 43 38 32 26 13 19 29 42 41 37 33 26 27 29 22 19 21 27 34 36 36 34 31 31 31 30 30 31 34 38 42 47 51 52 52 52 53 54 54 53 51 52 53 51 55 55 54 51
52 48 50 25 28 40 32 45 31 19 19 27 26 24 22 21 21 23 29 36 37 36 34 32 31 31 31 32 34 37 41 46 51 52 50 50 51 53 52 53 52 54 54 55 58 57 50 47 46
Wind_Direction
246 252 254 246 204 173 150 128 137 140 138 125 105 102 95 66 134 149 147 118 344 333 340 336 311 294 282 269 260 253 253 246 239 239 245 263 296 321 351 14 20 11 6 10 16 33 43 48 48
248 253 248 237 201 150 128 149 167 176 165 144 123 107 97 76 80 137 182 276 329 340 338 317 309 298 279 266 256 251 253 251 245 244 252 260 274 282 298 311 342 355 351 357 358 15 35 33 33
248 247 239 213 174 156 131 161 167 158 154 162 157 112 113 79 56 113 201 292 7 357 348 347 307 279 273 267 262 251 249 250 249 249 254 260 266 276 284 294 306 326 337 347 344 357 9 19 17
254 249 240 220 179 157 132 168 175 171 178 183 182 143 139 351 352 1 355 13 350 351 351 352 322 306 294 276 257 250 245 244 244 246 250 255 260 268 278 289 299 310 321 332 328 337 348 6 9
249 249 240 229 197 154 137 161 186 184 185 205 195 204 209 312 339 340 342 336 333 345 342 345 6 316 287 281 250 241 240 242 245 246 247 252 258 266 277 284 288 293 301 319 319 325 329 336 351
243 239 237 234 207 194 177 165 170 190 211 219 206 206 242 292 315 319 322 320 323 326 332 337 356 1 274 266 253 237 234 238 244 246 246 250 258 265 268 272 277 285 292 304 306 310 311 315 324
239 242 244 237 214 207 201 200 191 184 190 202 220 225 253 277 296 304 310 312 317 319 310 318 330 337 302 255 248 236 228 233 239 244 247 252 256 258 263 270 273 277 282 291 294 297 299 301 304
242 241 245 240 230 218 216 221 222 216 220 225 242 256 267 287 299 302 305 306 306 295 284 306 322 327 311 253 244 233 224 226 232 240 245 248 251 258 262 268 273 278 281 284 287 288 291 293 295
245 242 245 243 238 230 224 224 231 236 232 241 252 266 282 291 299 299 299 303 304 284 275 289 307 319 303 242 227 223 220 223 228 233 239 244 251 256 262 267 271 271 277 282 283 282 282 282 285
243 246 249 248 249 239 230 228 229 241 247 251 266 276 283 287 289 291 292 295 290 265 263 273 298 314 287 236 221 219 219 224 230 234 239 244 247 252 257 260 266 271 271 273 275 274 273 275 276
246 248 251 251 251 235 228 229 236 242 246 260 270 276 277 282 286 289 292 300 270 239 238 261 285 301 296 265 236 228 225 227 231 234 236 238 240 245 249 254 259 263 267 270 272 273 271 269 271
250 250 254 256 247 248 245 239 243 243 249 261 271 275 281 283 284 285 289 295 266 243 235 240 265 281 294 281 262 248 240 235 235 236 235 235 237 239 243 247 252 257 260 264 269 273 275 273 273
250 251 255 257 253 249 250 249 258 244 255 272 273 279 282 287 291 284 281 281 266 243 243 242 255 264 280 279 272 269 261 249 244 242 240 240 240 239 243 247 252 256 260 263 265 268 269 272 272
250 250 253 254 254 253 254 256 257 248 271 271 277 283 290 300 298 286 268 273 257 236 235 244 253 256 261 264 267 280 274 268 252 243 240 240 243 246 250 254 258 262 265 266 268 269 270 271 274
248 250 252 251 254 257 259 259 250 258 272 278 282 283 291 301 300 297 253 245 236 220 218 243 245 245 245 247 257 269 274 266 256 253 247 243 244 246 253 258 263 267 272 274 277 279 280 280 278
247 248 254 250 251 256 256 259 253 258 271 279 278 287 289 298 303 288 244 246 209 222 244 269 270 254 240 244 249 263 273 272 260 260 250 244 246 252 256 265 274 274 275 276 278 279 280 280 282
240 235 247 255 258 256 255 261 256 261 271 273 276 283 285 294 289 283 240 239 228 237 259 273 285 272 246 245 249 259 267 269 269 265 256 249 246 261 270 282 293 295 291 290 288 290 291 290 286
229 233 244 247 252 255 257 260 258 258 267 267 273 277 282 283 277 270 258 245 246 253 263 278 281 269 252 251 257 260 269 272 269 262 255 252 258 275 283 288 292 296 299 296 292 290 290 288 286
240 247 248 254 255 259 257 261 257 253 257 262 265 267 270 272 267 268 262 254 252 257 265 268 272 269 256 253 253 262 268 268 267 263 262 261 268 278 285 292 296 297 295 291 287 284 284 282 282
244 248 250 255 255 259 265 266 262 257 258 260 263 261 266 267 265 257 262 260 256 259 263 267 270 268 257 251 250 254 258 263 262 259 260 266 274 282 288 291 292 292 290 288 288 289 288 286 283
241 241 244 246 261 255 268 271 266 261 260 262 261 260 260 260 260 256 250 260 263 262 265 267 271 269 255 249 248 251 254 256 260 259 262 269 277 284 289 291 291 292 294 296 294 293 291 290 284
244 245 245 245 251 256 260 274 268 266 262 261 259 257 254 256 262 260 257 258 264 267 266 267 267 267 260 251 247 245 248 250 253 258 267 274 277 280 284 290 292 295 297 297 299 298 295 290 287
247 247 245 250 246 257 254 269 267 262 260 261 262 259 253 250 261 263 264 265 263 262 261 261 262 258 251 245 242 243 244 250 257 263 269 274 279 284 289 293 297 300 301 301 298 296 294 290 286
242 242 243 238 232 242 249 235 269 249 256 265 264 250 239 253 255 258 261 264 262 256 255 255 254 248 243 240 241 245 251 257 264 271 276 281 287 294 300 302 303 303 304 304 302 297 291 285 280
227 212 191 208 200 243 236 219 252 259 255 256 259 242 234 244 260 270 267 263 259 252 249 249 248 245 245 249 252 256 261 267 274 279 284 289 292 297 300 301 302 304 305 304 299 294 289 284 280
211 205 204 219 225 252 226 232 244 266 257 250 246 223 232 256 272 271 264 258 249 246 245 246 246 249 252 255 258 263 272 278 283 286 291 296 301 303 303 305 307 308 306 301 299 297 295 291 287
214 207 230 240 249 255 228 250 259 253 250 245 232 232 247 254 263 269 260 253 246 241 244 245 247 251 254 256 263 273 279 285 289 294 301 304 304 306 308 310 310 310 307 305 300 297 295 290 288
219 234 208 217 223 233 242 247 243 246 244 242 241 248 248 249 257 265 257 249 242 240 242 244 247 249 254 262 271 278 288 293 298 304 305 305 309 310 312 311 309 308 306 305 303 302 297 290 286
207 211 211 217 216 221 245 248 250 253 244 244 236 248 249 247 263 262 257 246 237 240 241 242 246 252 259 269 279 287 293 300 304 306 307 310 312 312 312 311 310 309 309 308 301 302 298 293 292
220 210 211 209 208 228 245 258 248 265 250 242 241 233 233 257 269 258 251 243 240 236 239 243 247 255 264 274 283 291 297 302 305 307 312 314 313 315 312 312 313 314 310 307 308 307 301 295 290